Change the Weather History Date:

Friday, January 18, 2013

  Actual Average Record
Temperature  
Mean Temperature 45 °F -  
Max Temperature 60 °F 31 °F 68 °F (1951)
Min Temperature 30 °F 14 °F -18 °F (1984)
Degree Days  
Heating Degree Days 20    
Moisture  
Dew Point 28 °F    
Average Humidity 58    
Maximum Humidity 80    
Minimum Humidity 27    
Precipitation  
Precipitation 0.00 in - - ()
Sea Level Pressure  
Sea Level Pressure 30.07 in    
Wind  
Wind Speed 10 mph (SW)    
Max Wind Speed 25 mph    
Max Gust Speed 31 mph    
Visibility 10 miles    
Events      
Averages and records for this station are not official NWS values.
T = Trace of Precipitation, MM = Missing Value Source: NWS Daily Summary

Daily Weather History Graph

Daily Weather History Graph

Search for Another Location

Airport or City:

Trip Planner

Search our weather history database for the weather conditions in past years. The results will help you decide how hot, cold, wet, or windy it might be!

Date:

Astronomy

Jan. 18, 2013 Rise Set
Actual Time 7:42 AM CST 5:22 PM CST
Civil Twilight 7:12 AM CST 5:52 PM CST
Nautical Twilight 6:38 AM CST 6:26 PM CST
Astronomical Twilight 6:05 AM CST 6:58 PM CST
Moon 11:18 AM CST (1/18) 12:16 AM CST (1/18)
Length of Visible Light 10h 40m
Length of Day
9h 40m
Waxing Crescent, 47% of the Moon is Illuminated
Jan 18
Waxing Crescent
Jan 18
First Quarter
Jan 26
Full
Feb 3
Last Quarter
Feb 10
New

Hourly Weather History & Observations

Time (CST) Temp. Windchill Dew Point Humidity Pressure Visibility Wind Dir Wind Speed Gust Speed Precip Events Conditions
12:15 AM 33.8 °F 29.6 °F 26.6 °F 75% 30.32 in 10.0 mi South 4.6 mph - N/A   Clear
12:35 AM 33.8 °F 27.7 °F 26.6 °F 75% 30.31 in 10.0 mi South 6.9 mph - N/A   Clear
1:38 AM 32.0 °F 26.4 °F 26.6 °F 80% 30.30 in 10.0 mi South 5.8 mph - N/A   Scattered Clouds
1:55 AM 32.0 °F 26.4 °F 26.6 °F 80% 30.30 in 10.0 mi South 5.8 mph - N/A   Scattered Clouds
2:15 AM 30.2 °F 25.4 °F 24.8 °F 80% 30.30 in 10.0 mi South 4.6 mph - N/A   Scattered Clouds
2:35 AM 30.2 °F 26.7 °F 24.8 °F 80% 30.29 in 10.0 mi South 3.5 mph - N/A   Scattered Clouds
2:55 AM 33.8 °F 30.8 °F 26.6 °F 75% 30.28 in 10.0 mi South 3.5 mph - N/A   Scattered Clouds
3:15 AM 30.2 °F 23.4 °F 24.8 °F 80% 30.27 in 10.0 mi South 6.9 mph - N/A   Scattered Clouds
3:35 AM 32.0 °F 24.8 °F 24.8 °F 75% 30.26 in 10.0 mi SSW 8.1 mph - N/A   Scattered Clouds
3:55 AM 32.0 °F 26.4 °F 26.6 °F 80% 30.25 in 10.0 mi South 5.8 mph - N/A   Scattered Clouds
4:15 AM 33.8 °F - 26.6 °F 75% 30.24 in 10.0 mi Calm Calm - N/A   Scattered Clouds
4:35 AM 35.6 °F - 26.6 °F 70% 30.23 in 10.0 mi Calm Calm - N/A   Scattered Clouds
4:55 AM 33.8 °F 25.8 °F 26.6 °F 75% 30.22 in 10.0 mi SSW 10.4 mph - N/A   Scattered Clouds
5:15 AM 33.8 °F 25.8 °F 26.6 °F 75% 30.20 in 10.0 mi SSW 10.4 mph - N/A   Scattered Clouds
5:35 AM 35.6 °F 27.5 °F 28.4 °F 75% 30.19 in 10.0 mi SSW 11.5 mph - N/A   Scattered Clouds
5:55 AM 35.6 °F 27.1 °F 28.4 °F 75% 30.18 in 10.0 mi SSW 12.7 mph - N/A   Scattered Clouds
6:15 AM 35.6 °F 26.6 °F 28.4 °F 75% 30.18 in 10.0 mi SSW 13.8 mph - N/A   Scattered Clouds
6:35 AM 35.6 °F 27.5 °F 28.4 °F 75% 30.17 in 10.0 mi SSW 11.5 mph - N/A   Scattered Clouds
6:55 AM 35.6 °F 28.0 °F 28.4 °F 75% 30.16 in 10.0 mi South 10.4 mph - N/A   Scattered Clouds
7:15 AM 33.8 °F 25.8 °F 26.6 °F 75% 30.15 in 10.0 mi South 10.4 mph - N/A   Scattered Clouds
7:35 AM 35.6 °F 27.5 °F 28.4 °F 75% 30.14 in 10.0 mi South 11.5 mph - N/A   Scattered Clouds
7:55 AM 37.4 °F 29.3 °F 28.4 °F 70% 30.12 in 10.0 mi South 12.7 mph - N/A   Scattered Clouds
8:15 AM 39.2 °F 32.5 °F 28.4 °F 65% 30.11 in 10.0 mi South 10.4 mph 16.1 mph N/A   Clear
8:35 AM 39.2 °F 32.5 °F 28.4 °F 65% 30.12 in 10.0 mi SSW 10.4 mph - N/A   Clear
8:55 AM 41.0 °F 33.1 °F 30.2 °F 65% 30.12 in 10.0 mi SSW 15.0 mph 19.6 mph N/A   Scattered Clouds
9:15 AM 42.8 °F 37.0 °F 30.2 °F 61% 30.13 in 10.0 mi SSW 10.4 mph - N/A   Clear
9:35 AM 44.6 °F 37.8 °F 30.2 °F 57% 30.12 in 10.0 mi SSW 15.0 mph - N/A   Clear
9:55 AM 46.4 °F 39.2 °F 32.0 °F 57% 30.12 in 10.0 mi SW 18.4 mph 21.9 mph N/A   Clear
10:15 AM 48.2 °F - 32.0 °F 54% 30.11 in 10.0 mi SW 23.0 mph 28.8 mph N/A   Clear
10:35 AM 48.2 °F - 30.2 °F 50% 30.10 in 10.0 mi SW 21.9 mph 31.1 mph N/A   Clear
10:55 AM 50.0 °F - 30.2 °F 47% 30.09 in 10.0 mi SW 24.2 mph 27.6 mph N/A   Clear
11:15 AM 51.8 °F - 30.2 °F 44% 30.07 in 10.0 mi SW 23.0 mph 27.6 mph N/A   Clear
11:35 AM 53.6 °F - 30.2 °F 41% 30.05 in 10.0 mi SW 23.0 mph 29.9 mph N/A   Clear
11:55 AM 55.4 °F - 30.2 °F 38% 30.04 in 10.0 mi SW 21.9 mph 27.6 mph N/A   Clear
12:15 PM 55.4 °F - 28.4 °F 36% 30.03 in 10.0 mi SW 24.2 mph 29.9 mph N/A   Clear
12:35 PM 55.4 °F - 28.4 °F 36% 30.01 in 10.0 mi WSW 20.7 mph 29.9 mph N/A   Clear
12:55 PM 57.2 °F - 28.4 °F 33% 29.99 in 10.0 mi SW 20.7 mph 25.3 mph N/A   Clear
1:15 PM 57.2 °F - 26.6 °F 31% 29.98 in 10.0 mi SW 23.0 mph 29.9 mph N/A   Clear
1:35 PM 57.2 °F - 28.4 °F 33% 29.97 in 10.0 mi SW 25.3 mph 28.8 mph N/A   Clear
1:55 PM 59.0 °F - 28.4 °F 31% 29.97 in 10.0 mi WSW 24.2 mph - N/A   Clear
2:15 PM 59.0 °F - 26.6 °F 29% 29.97 in 10.0 mi WSW 20.7 mph 28.8 mph N/A   Clear
2:35 PM 60.8 °F - 28.4 °F 29% 29.97 in 10.0 mi WSW 16.1 mph 26.5 mph N/A   Clear
2:55 PM 60.8 °F - 26.6 °F 27% 29.96 in 10.0 mi SW 20.7 mph 26.5 mph N/A   Clear
3:15 PM 60.8 °F - 26.6 °F 27% 29.96 in 10.0 mi SW 16.1 mph 25.3 mph N/A   Clear
3:35 PM 60.8 °F - 26.6 °F 27% 29.96 in 10.0 mi WSW 15.0 mph - N/A   Clear
3:55 PM 60.8 °F - 26.6 °F 27% 29.95 in 10.0 mi WSW 17.3 mph 20.7 mph N/A   Clear
4:15 PM 59.0 °F - 26.6 °F 29% 29.96 in 10.0 mi WSW 15.0 mph - N/A   Scattered Clouds
4:35 PM 57.2 °F - 26.6 °F 31% 29.97 in 10.0 mi West 10.4 mph - N/A   Clear
4:55 PM 55.4 °F - 28.4 °F 36% 29.97 in 10.0 mi West 10.4 mph - N/A   Clear
5:15 PM 53.6 °F - 28.4 °F 38% 29.97 in 10.0 mi WSW 9.2 mph - N/A   Clear
5:35 PM 48.2 °F - 28.4 °F 46% 29.97 in 10.0 mi SW 6.9 mph - N/A   Scattered Clouds
5:55 PM 46.4 °F 45.2 °F 26.6 °F 46% 29.98 in 10.0 mi WSW 3.5 mph - N/A   Scattered Clouds
6:15 PM 48.2 °F - 28.4 °F 46% 29.98 in 10.0 mi SW 3.5 mph - N/A   Scattered Clouds
6:35 PM 48.2 °F - 28.4 °F 46% 29.98 in 10.0 mi WSW 4.6 mph - N/A   Scattered Clouds
6:55 PM 46.4 °F 43.5 °F 28.4 °F 50% 29.99 in 10.0 mi WSW 5.8 mph - N/A   Scattered Clouds
7:15 PM 42.8 °F 41.1 °F 26.6 °F 53% 29.99 in 10.0 mi SW 3.5 mph - N/A   Scattered Clouds
7:35 PM 41.0 °F 39.0 °F 26.6 °F 57% 29.99 in 10.0 mi SSW 3.5 mph - N/A   Scattered Clouds
7:55 PM 42.8 °F 41.1 °F 28.4 °F 57% 29.99 in 10.0 mi SSW 3.5 mph - N/A   Scattered Clouds
8:15 PM 39.2 °F 35.0 °F 26.6 °F 61% 29.98 in 10.0 mi South 5.8 mph - N/A   Scattered Clouds
8:35 PM 37.4 °F 33.8 °F 26.6 °F 65% 29.98 in 10.0 mi South 4.6 mph - N/A   Scattered Clouds
8:55 PM 35.6 °F - 26.6 °F 70% 29.98 in 10.0 mi Calm Calm - N/A   Scattered Clouds
9:15 PM 41.0 °F 39.0 °F 28.4 °F 61% 29.97 in 10.0 mi SSW 3.5 mph - N/A   Scattered Clouds
9:35 PM 35.6 °F - 26.6 °F 70% 29.96 in 10.0 mi Calm Calm - N/A   Scattered Clouds
9:55 PM 35.6 °F 32.8 °F 26.6 °F 70% 29.96 in 10.0 mi SW 3.5 mph - N/A   Scattered Clouds
10:15 PM 35.6 °F - 26.6 °F 70% 29.95 in 10.0 mi Calm Calm - N/A   Scattered Clouds
10:35 PM 35.6 °F 31.7 °F 26.6 °F 70% 29.95 in 10.0 mi WSW 4.6 mph - N/A   Scattered Clouds
10:55 PM 37.4 °F 33.8 °F 28.4 °F 70% 29.94 in 10.0 mi WSW 4.6 mph - N/A   Scattered Clouds
11:15 PM 37.4 °F 34.9 °F 28.4 °F 70% 29.94 in 10.0 mi West 3.5 mph - N/A   Scattered Clouds
11:35 PM 39.2 °F 34.2 °F 30.2 °F 70% 29.93 in 10.0 mi WSW 6.9 mph - N/A   Scattered Clouds
11:55 PM 41.0 °F 35.2 °F 30.2 °F 65% 29.93 in 10.0 mi SW 9.2 mph - N/A   Scattered Clouds